This is the latest recevied weather packets stored in our database for station/object K2RMB. If no packets are shown the sender has not sent any weather packets the latest 10 day(s).
| Time | Temp. | Humidity | Pressure | Rain* | Wind** | Luminosity | Snow |
|---|---|---|---|---|---|---|---|
| 1777790797 | 1.11° C | 81% | 1011.1 hPa | 0 mm | - | 0 W/m² | - |
| 1777790494 | 1.11° C | 80% | 1011.5 hPa | 0 mm | - | 0 W/m² | - |
| 1777790191 | 1.11° C | 81% | 1011.1 hPa | 0 mm | - | 0 W/m² | - |
| 1777789890 | 1.11° C | 81% | 1011.5 hPa | 0 mm | - | 0 W/m² | - |
| 1777789588 | 0.56° C | 81% | 1011.5 hPa | 0 mm | - | 0 W/m² | - |
| 1777789286 | 0.56° C | 82% | 1011.5 hPa | 0 mm | - | 0 W/m² | - |
| 1777788983 | 0.56° C | 82% | 1011.5 hPa | 0 mm | - | 0 W/m² | - |
| 1777788679 | 0.56° C | 82% | 1011.8 hPa | 0 mm | - | 0 W/m² | - |
| 1777788375 | 0.56° C | 82% | 1011.5 hPa | 0 mm | - | 0 W/m² | - |
| 1777788070 | 0.56° C | 81% | 1011.5 hPa | 0 mm | - | 0 W/m² | - |
| 1777787765 | 1.11° C | 80% | 1011.8 hPa | 0 mm | - | 0 W/m² | - |
| 1777787461 | 1.11° C | 79% | 1011.8 hPa | 0 mm | - | 0 W/m² | - |
| 1777787157 | 1.11° C | 78% | 1011.5 hPa | 0 mm | - | 0 W/m² | - |
| 1777786854 | 1.11° C | 77% | 1011.8 hPa | 0 mm | - | 0 W/m² | - |
| 1777786552 | 1.67° C | 77% | 1011.8 hPa | 0 mm | - | 0 W/m² | - |
| 1777786250 | 1.67° C | 79% | 1011.8 hPa | 0 mm | - | 0 W/m² | - |
| 1777785947 | 1.67° C | 79% | 1012.1 hPa | 0 mm | - | 0 W/m² | - |
| 1777785643 | 1.67° C | 75% | 1011.8 hPa | 0 mm | - | 0 W/m² | - |
| 1777785338 | 1.67° C | 76% | 1012.1 hPa | 0 mm | - | 0 W/m² | - |
| 1777785036 | 1.67° C | 73% | 1012.1 hPa | 0 mm | - | 0 W/m² | - |
| 1777784731 | 1.67° C | 74% | 1012.5 hPa | 0 mm | - | 0 W/m² | - |
| 1777784430 | 1.67° C | 76% | 1012.1 hPa | 0 mm | - | 0 W/m² | - |
| 1777784126 | 1.67° C | 77% | 1012.1 hPa | 0 mm | - | 0 W/m² | - |
| 1777783824 | 1.67° C | 76% | 1012.1 hPa | 0 mm | - | 0 W/m² | - |
| 1777783520 | 2.22° C | 74% | 1011.8 hPa | 0 mm | - | 0 W/m² | - |
* Rain latest hour (hover to see other rain measurements)
** Current wind speed in m/s (hover to see current wind gust speed)